Theta_e
324 324 324 326 331 328 327 325 324 320 323 321 319 318 318 318 319 318 317 316 315 315 315 315 317 320 320 320 320 320 320 320 320 319 318 317 316 317 317 317 318 319 319
322 324 322 324 327 328 328 325 322 323 324 320 319 319 320 320 319 319 317 315 316 316 316 316 316 315 315 314 315 315 317 316 317 317 316 316 316 318 318 319 319 319 319
321 323 321 323 327 325 326 326 319 322 321 320 320 320 320 321 319 319 319 317 316 316 316 316 316 316 316 316 316 316 316 316 317 317 316 318 319 319 320 319 318 317 317
322 321 321 321 324 326 325 326 321 321 320 320 320 321 321 321 321 320 320 319 318 318 317 317 317 317 316 315 315 314 313 313 316 318 319 318 318 318 318 317 316 316 315
322 323 321 318 324 324 325 325 322 322 320 320 319 321 321 321 320 320 320 319 319 319 318 317 317 316 315 315 313 314 316 318 319 318 318 317 317 317 316 315 313 306 301
323 323 321 319 323 326 326 325 323 320 319 319 320 322 321 320 319 319 320 320 321 319 317 318 317 317 315 314 316 316 317 317 318 318 317 316 315 308 304 300 297 297 297
324 322 318 319 323 325 326 324 324 319 319 321 321 321 320 320 319 320 324 323 320 320 321 319 319 316 314 317 318 319 319 318 318 317 316 315 300 297 297 297 297 297 297
322 319 319 322 323 324 325 323 323 322 321 321 321 321 321 321 321 321 315 315 314 315 315 314 314 314 317 320 320 319 318 317 316 315 314 301 297 297 297 297 297 297 297
321 323 323 323 322 323 324 324 323 323 321 320 321 321 321 319 320 317 317 316 315 316 316 315 315 318 320 319 319 318 317 316 315 313 301 297 297 296 296 297 297 296 296
320 322 323 324 323 323 323 323 323 322 321 320 321 321 320 319 319 318 318 317 316 316 316 316 317 318 318 319 318 318 316 315 314 310 297 297 296 296 296 296 296 296 296
319 318 322 323 324 323 323 323 322 322 322 321 320 320 318 318 318 318 318 318 319 318 317 318 318 318 317 318 317 316 315 315 312 302 296 296 295 295 296 296 296 296 297
317 316 319 322 322 323 324 323 322 321 321 321 321 319 318 317 319 318 317 318 319 318 318 318 318 318 317 316 315 315 315 313 306 296 295 295 295 295 295 296 296 298 299
317 318 319 320 321 323 323 323 322 322 321 320 321 320 319 318 317 318 319 318 318 319 318 318 317 316 315 314 314 314 314 310 296 295 295 295 295 295 296 297 298 300 301
316 318 318 319 320 323 323 322 323 322 319 319 318 319 318 319 319 319 319 320 319 318 317 316 315 314 313 313 313 314 309 297 295 295 295 295 295 295 297 298 300 301 301
315 317 318 318 319 322 323 323 323 321 320 320 321 320 320 320 321 320 320 320 320 318 317 315 313 312 312 312 314 313 302 295 294 294 294 294 295 297 298 299 300 300 301
312 316 318 318 318 320 320 322 323 322 322 320 317 318 320 319 319 318 319 320 320 319 317 314 313 311 311 311 311 302 294 294 294 294 294 295 296 297 298 299 300 301 302
309 315 317 318 318 319 320 322 322 321 321 319 317 317 317 317 319 320 320 319 318 318 317 315 313 312 311 310 304 294 293 293 294 294 294 296 297 298 298 297 299 301 300
304 311 315 317 318 319 320 319 319 320 320 319 317 317 317 317 319 319 319 318 318 316 316 316 314 313 310 307 295 294 293 293 294 294 295 296 298 298 297 297 297 298 299
303 304 311 316 318 318 317 319 317 317 319 318 319 319 319 319 318 318 317 317 316 317 316 315 315 313 310 301 294 293 293 293 293 294 295 297 296 295 296 296 297 297 299
303 303 306 312 316 317 318 318 318 318 319 318 318 318 318 318 317 317 316 316 316 316 315 315 314 312 308 295 293 293 293 293 293 294 295 297 295 295 295 296 297 297 297
304 305 307 310 315 316 317 317 316 317 317 317 318 317 316 316 315 315 315 315 315 314 312 308 304 304 296 294 293 293 292 292 293 294 296 296 295 295 296 296 297 297 296
308 309 311 313 314 314 314 316 316 316 316 315 315 314 314 314 313 313 313 312 309 305 300 296 296 295 294 294 293 293 293 292 293 294 295 295 295 295 296 296 295 295 296
309 310 311 312 314 313 314 313 313 313 315 314 313 313 312 312 312 312 311 308 304 298 296 295 295 295 294 294 294 293 293 293 293 293 295 295 295 295 295 296 295 295 295
308 310 311 311 312 311 311 311 311 312 312 311 310 310 309 309 308 308 307 299 296 295 295 294 294 294 294 294 294 293 293 293 293 293 294 294 295 295 295 295 295 294 294
307 308 308 308 310 310 310 310 311 311 309 308 308 307 306 304 302 300 297 295 295 294 294 294 294 294 294 294 294 293 293 293 293 292 293 294 294 294 295 295 294 294 292
306 308 308 308 308 309 309 307 310 309 308 307 305 304 301 298 296 295 295 294 294 294 294 294 294 294 294 293 293 293 293 293 293 292 292 293 294 293 293 293 293 293 293
Wind_Speed
19 21 20 21 24 24 17 19 16 17 13 13 11 9 7 4 3 1 2 1 2 2 3 3 2 4 5 6 8 10 12 12 14 16 19 20 21 21 21 22 23 23 24
23 19 22 24 25 23 23 19 19 19 16 14 11 9 6 2 1 3 5 4 3 4 5 5 5 6 7 9 11 12 14 15 15 15 17 17 17 21 23 22 20 20 22
21 19 24 25 27 25 25 19 22 20 18 14 12 9 7 3 2 2 4 5 5 4 5 6 8 9 10 11 13 13 13 13 12 13 15 17 19 20 19 18 21 22 24
29 28 25 26 26 25 27 23 23 23 19 15 12 9 8 4 4 5 6 6 7 8 8 8 9 11 12 13 14 13 12 12 13 16 18 19 21 21 22 25 26 27 27
32 32 27 24 27 29 28 24 23 22 20 14 13 8 6 7 7 7 8 9 9 9 9 11 11 12 13 11 10 10 11 14 13 17 20 21 20 24 26 27 27 25 25
32 27 27 24 26 25 24 25 24 21 17 15 10 10 9 9 6 9 10 10 11 12 10 10 11 11 11 8 9 10 10 14 16 15 18 22 24 26 24 23 22 22 23
34 26 25 24 26 27 25 20 18 20 18 15 14 13 12 12 9 8 7 8 12 8 8 4 7 9 9 10 12 14 13 14 15 16 19 24 23 22 21 21 22 23 23
27 25 23 24 22 23 23 21 21 20 20 19 15 9 2 2 4 4 6 6 6 6 8 7 5 5 8 13 13 11 12 12 14 19 22 23 21 21 21 21 22 23 23
20 22 20 20 22 23 25 22 19 19 18 17 15 6 5 3 8 2 3 4 2 4 2 3 3 6 9 13 12 10 10 11 16 20 21 20 20 20 20 20 21 22 23
12 14 19 18 17 20 20 22 18 15 15 14 15 15 8 6 4 4 3 3 3 6 11 9 10 10 13 12 10 8 8 13 18 21 21 21 21 21 19 21 22 23 23
12 17 13 18 19 17 18 18 20 19 16 16 13 13 11 10 12 12 8 10 12 11 11 13 13 14 14 11 10 5 10 14 19 21 20 18 18 18 19 20 22 24 25
13 14 19 16 18 17 25 21 17 19 19 16 13 12 13 13 12 11 14 16 16 17 16 15 15 14 12 10 7 6 10 14 17 17 17 18 17 17 19 21 23 24 26
9 15 11 14 19 13 16 23 19 17 17 15 15 15 12 13 14 15 15 16 17 18 15 15 14 12 11 7 5 5 11 14 14 14 15 16 16 18 21 21 23 25 27
11 8 6 10 16 19 16 16 21 19 16 16 16 16 16 15 18 19 21 21 15 15 12 13 11 11 8 6 4 6 9 11 11 13 14 14 16 18 19 20 22 26 27
15 10 8 6 14 17 21 19 19 19 19 16 15 14 16 16 16 18 20 17 9 7 9 11 11 9 5 1 7 8 8 9 10 11 12 13 16 17 19 21 23 26 30
7 13 10 5 10 17 21 20 21 22 20 17 16 20 19 12 7 9 8 10 11 9 10 7 8 7 5 2 4 4 5 7 8 10 11 13 15 19 21 21 23 26 28
10 10 11 9 8 9 15 21 20 17 16 14 5 3 3 2 11 11 10 9 10 8 8 5 5 7 5 1 2 3 4 6 8 10 12 13 18 19 20 22 24 23 26
11 12 11 10 8 8 10 8 4 7 11 9 9 8 8 12 13 10 8 9 8 6 3 4 4 6 6 3 3 3 4 6 8 10 14 14 17 18 20 22 25 22 23
10 11 13 12 11 11 8 7 6 9 10 8 9 11 10 10 8 4 3 4 6 5 6 6 5 6 6 6 5 5 5 6 8 11 13 14 18 18 20 23 26 25 25
8 10 13 13 12 10 9 9 7 5 5 5 8 6 5 5 4 3 4 4 5 6 6 6 7 7 8 9 8 7 6 6 8 10 12 14 16 18 18 23 25 25 24
9 9 10 12 10 10 8 7 6 5 6 6 7 5 5 5 5 5 6 5 5 5 6 4 4 8 8 9 9 9 7 7 9 9 10 12 14 17 17 22 22 20 20
13 12 11 12 11 10 7 6 6 8 6 3 4 3 4 3 4 5 4 4 4 4 4 3 6 7 8 9 8 9 8 7 6 7 8 13 13 17 17 19 16 15 15
15 13 12 11 11 10 10 9 9 7 7 5 4 3 2 2 3 3 4 5 5 5 6 7 7 9 8 9 9 8 8 7 7 9 8 12 12 13 13 11 10 10 11
12 12 12 12 11 10 9 6 6 6 6 5 4 2 1 2 2 4 5 4 5 5 6 6 8 9 10 10 10 9 9 10 8 7 6 10 10 9 7 7 8 8 9
9 10 11 10 9 10 8 6 5 6 5 3 2 3 4 4 4 5 4 4 5 7 9 10 10 9 10 11 10 9 9 9 7 6 5 6 10 8 4 3 5 6 8
7 7 8 8 7 9 7 4 6 6 6 4 4 4 4 4 5 6 5 6 5 7 10 11 12 11 11 11 10 8 6 6 6 6 6 5 6 6 4 2 1 1 4
Wind_Direction
207 221 221 210 205 207 210 200 185 176 183 193 163 154 150 138 108 56 24 350 342 355 353 13 324 291 286 290 305 308 312 312 312 312 313 315 317 324 323 322 324 323 321
242 216 225 213 209 210 199 199 192 183 196 197 178 176 175 163 354 20 350 354 311 326 330 335 330 313 309 304 293 294 300 304 309 310 313 320 324 326 327 324 330 331 324
217 228 220 212 203 214 203 210 197 195 203 197 191 194 206 206 315 318 350 342 346 337 327 331 327 322 320 315 314 314 316 319 315 322 334 331 330 331 325 320 317 315 313
225 228 214 211 208 206 218 210 205 206 208 204 210 214 219 242 282 302 305 315 315 316 320 322 320 314 313 316 319 321 327 332 335 339 338 333 322 316 309 308 311 314 312
213 214 214 212 207 208 216 204 206 210 208 203 215 232 264 275 300 292 303 314 307 301 305 307 309 311 304 315 325 335 341 345 334 329 325 322 325 317 310 311 315 319 322
206 209 206 206 202 203 201 207 207 205 208 216 215 217 252 283 300 295 308 315 302 303 302 289 302 299 306 328 332 330 333 321 324 325 330 327 322 318 319 322 324 324 322
202 196 199 201 200 201 201 209 209 203 204 210 218 233 246 259 274 287 286 271 287 288 302 278 259 283 319 333 328 326 334 331 325 330 328 327 326 326 328 327 327 330 329
174 178 194 197 193 197 201 203 206 198 205 211 218 231 262 203 207 292 292 277 266 253 266 278 296 306 320 320 319 330 339 331 327 334 331 332 331 332 334 334 331 330 332
174 180 182 192 198 198 196 205 208 208 209 206 209 174 177 153 167 226 303 323 266 264 305 310 292 295 304 318 314 323 328 324 333 336 335 334 334 334 332 333 336 339 338
203 188 193 185 197 201 203 203 208 211 211 213 205 205 184 158 158 166 271 313 295 297 301 288 285 292 301 303 300 307 315 326 337 339 339 340 336 337 343 345 344 348 346
198 218 223 208 202 205 203 212 211 207 212 215 208 200 210 235 246 240 238 250 255 265 282 285 284 285 292 283 281 286 316 334 336 342 338 339 347 349 352 349 354 356 352
205 213 233 225 228 222 219 212 212 212 214 220 212 219 227 236 252 246 243 249 266 273 275 279 280 284 275 274 272 314 326 333 340 338 344 353 352 355 360 6 5 1 358
184 201 213 218 222 219 220 217 214 206 215 224 232 237 248 252 257 267 255 263 267 271 270 275 272 269 271 263 269 324 331 333 339 348 354 354 358 8 12 12 10 13 12
196 195 235 222 211 212 216 216 217 220 226 228 232 244 257 267 261 261 269 262 269 251 258 261 265 256 248 264 290 329 342 343 349 356 357 2 14 18 18 19 28 24 18
191 189 216 227 212 207 211 208 209 211 218 222 237 257 262 280 270 265 262 268 274 263 251 256 256 256 237 278 339 322 354 349 359 2 8 17 24 24 27 31 34 32 39
197 184 188 247 203 211 225 220 222 221 219 227 255 267 251 275 268 283 282 258 248 254 241 258 261 227 221 270 320 8 19 13 11 23 28 27 31 34 33 34 41 45 49
195 191 178 190 139 156 199 216 233 226 233 232 212 306 217 152 240 255 260 254 251 259 265 253 233 215 230 255 62 64 52 39 30 35 39 36 41 42 38 46 46 51 46
200 183 186 182 164 138 142 139 151 190 186 200 218 229 245 247 247 260 266 263 254 261 238 254 229 240 244 141 126 100 77 57 46 41 46 43 49 48 49 52 46 46 44
189 186 180 179 164 165 166 185 205 231 233 228 227 248 240 246 228 227 238 249 255 248 237 249 259 228 190 169 151 141 109 74 59 52 53 52 60 55 60 60 50 47 59
153 165 174 175 170 171 171 187 196 201 201 218 207 191 214 209 183 255 268 248 225 229 240 260 234 204 190 172 167 146 131 98 72 59 59 61 66 67 70 66 55 54 61
113 138 150 159 161 164 181 188 194 199 185 191 162 169 163 186 208 243 249 241 226 229 237 241 228 203 187 178 170 157 148 105 85 70 72 77 75 75 73 72 67 61 59
103 110 126 138 145 146 161 175 183 169 165 170 152 198 220 222 254 269 272 252 247 233 242 213 199 186 176 168 162 172 168 136 102 85 90 81 83 83 71 69 75 66 57
108 115 122 126 130 136 141 137 136 142 149 167 179 187 217 205 233 250 258 261 264 229 196 179 180 163 162 155 149 156 160 157 152 123 99 94 96 93 77 53 63 55 60
124 127 127 127 134 141 141 147 139 151 169 161 148 176 220 238 283 271 240 210 200 204 192 166 157 159 154 151 148 150 150 156 147 131 124 111 117 106 85 42 33 30 41
148 146 147 146 142 139 141 160 154 173 190 199 241 257 237 250 250 235 226 211 194 189 165 166 160 159 157 166 161 154 143 145 158 169 166 142 140 134 116 64 12 15 61
157 154 163 165 175 164 175 186 201 207 216 222 249 261 260 245 221 204 208 185 183 183 180 173 166 168 171 169 165 164 155 150 173 164 178 171 173 158 154 160 354 50 47